Zurück zum Katalog

STARLINK-2707

AktivKommunikationVLEO
NORAD 48669·PAYLOAD·🇺🇸 United States

Gestartet May 26, 2021 von Cape Canaveral Space Force Station

Loading…

Nächste Überflüge (nächste 24 Stunden)

TLE

AktuellSource: CelesTrak SupGP

Epoche: Sep 15, 2026, 01:58 UTC

1 48669C 21044AH  26258.08243056  .00033825  00000+0  10872-2 0  2583
2 48669  53.1597 302.6909 0001267  84.7529  79.1554 15.31699409    14

Verfolge STARLINK-2707 in Echtzeit mit AllMySat

Download on the App Store